TimeEST,TemperatureF,Dew PointF,Humidity,Sea Level PressureIn,VisibilityMPH,Wind Direction,Wind SpeedMPH,Gust SpeedMPH,PrecipitationIn,Events,Conditions,WindDirDegrees,DateUTC
12:00 AM,46.9,39.9,77,30.23,-9999.0,ENE,8.1,-,N/A,,Overcast,60,2012-11-20 05:00:00
1:00 AM,46.0,39.0,76,30.22,-9999.0,NE,4.6,-,N/A,,Overcast,50,2012-11-20 06:00:00
2:00 AM,45.0,39.0,80,30.20,-9999.0,Variable,3.5,-,N/A,,Overcast,0,2012-11-20 07:00:00
3:00 AM,45.0,37.9,76,30.19,-9999.0,Calm,Calm,-,N/A,,Overcast,0,2012-11-20 08:00:00
3:49 AM,42.8,37.4,81,30.19,-9999.0,NNW,4.6,-,N/A,,Scattered Clouds,330,2012-11-20 08:49:00
4:00 AM,41.0,37.0,86,30.19,-9999.0,NW,3.5,-,N/A,,Clear,320,2012-11-20 09:00:00
5:00 AM,37.9,36.0,93,30.18,-9999.0,North,3.5,-,N/A,,Clear,10,2012-11-20 10:00:00
6:00 AM,37.0,35.1,93,30.19,-9999.0,NNW,3.5,-,N/A,,Clear,330,2012-11-20 11:00:00
7:00 AM,30.9,30.0,96,30.19,-9999.0,Calm,Calm,-,N/A,,Clear,0,2012-11-20 12:00:00
8:00 AM,39.0,35.1,86,30.18,-9999.0,NE,3.5,-,N/A,,Clear,40,2012-11-20 13:00:00
9:00 AM,43.0,36.0,76,30.18,-9999.0,Calm,Calm,-,N/A,,Clear,0,2012-11-20 14:00:00
10:00 AM,46.9,36.0,66,30.18,-9999.0,Calm,Calm,-,N/A,,Clear,0,2012-11-20 15:00:00
11:00 AM,48.9,35.1,59,30.16,-9999.0,ENE,8.1,-,N/A,,Clear,70,2012-11-20 16:00:00
12:00 PM,51.1,33.1,50,30.13,-9999.0,NE,4.6,-,N/A,,Clear,50,2012-11-20 17:00:00
1:00 PM,52.0,32.0,47,30.12,-9999.0,North,3.5,-,N/A,,Clear,360,2012-11-20 18:00:00
2:00 PM,53.1,30.0,41,30.10,-9999.0,Variable,4.6,-,N/A,,Clear,0,2012-11-20 19:00:00
3:00 PM,51.1,27.0,39,30.11,-9999.0,NNE,3.5,-,N/A,,Clear,30,2012-11-20 20:00:00
4:00 PM,48.0,34.0,58,30.11,-9999.0,East,3.5,-,N/A,,Clear,100,2012-11-20 21:00:00
6:00 PM,43.0,33.1,68,30.12,-9999.0,Calm,Calm,-,N/A,,Clear,0,2012-11-20 23:00:00
7:00 PM,39.9,35.1,83,30.13,-9999.0,Calm,Calm,-,N/A,,Clear,0,2012-11-21 00:00:00
8:00 PM,39.9,34.0,79,30.12,-9999.0,Calm,Calm,-,N/A,,Clear,0,2012-11-21 01:00:00
9:00 PM,37.9,34.0,86,30.13,-9999.0,Calm,Calm,-,N/A,,Clear,0,2012-11-21 02:00:00
10:00 PM,42.1,35.1,76,30.14,-9999.0,North,3.5,-,N/A,,Clear,10,2012-11-21 03:00:00
11:00 PM,43.0,36.0,76,30.13,-9999.0,North,3.5,-,N/A,,Clear,10,2012-11-21 04:00:00